Big Rapids, MI

9:05 AM EDT on September 18, 2019 (GMT -0400)
Roben-Hood

Weather History for KRQB - July, 2019

Change the Weather History Date:

Thursday, July 18, 2019

  Actual Average Record
Temperature  
Mean Temperature 75 °F -  
Max Temperature 86 °F 83 °F 93 °F (2013)
Min Temperature 64 °F 59 °F 42 °F (2000)
Cooling Degree Days 10    
Growing Degree Days 25 (Base 50)    
Moisture  
Dew Point 66 °F    
Average Humidity 76    
Maximum Humidity 93    
Minimum Humidity 49    
Precipitation  
Precipitation 0.00 in - - ()
Sea Level Pressure  
Sea Level Pressure 29.85 in    
Wind  
Wind Speed 6 mph (SSW)    
Max Wind Speed 18 mph    
Max Gust Speed 23 mph    
Visibility 10 miles    
Events Rain    
Averages and records for this station are not official NWS values.
T = Trace of Precipitation, MM = Missing Value Source: NWS Daily Summary

Daily Weather History Graph

Daily Weather History Graph

Search for Another Location

Airport or City:

Astronomy

Jul. 18, 2019 Rise Set
Actual Time 6:16 AM EDT 9:19 PM EDT
Civil Twilight 5:42 AM EDT 9:53 PM EDT
Nautical Twilight 4:58 AM EDT 10:37 PM EDT
Astronomical Twilight 4:05 AM EDT 11:29 PM EDT
Moon 10:42 PM EDT 7:46 AM EDT
Length of Visible Light 16h 11m
Length of Day
15h 02m
Full, 97% of the Moon is Illuminated
Jul 18
Full
Jul 24
Last Quarter
Jul 31
New
Aug 7
First Quarter
Aug 15
Full

Hourly Weather History & Observations

Time (EDT) Temp. Heat Index Dew Point Humidity Pressure Visibility Wind Dir Wind Speed Gust Speed Precip Events Conditions
12:00 AM 73.2 °F - 62.6 °F 69% 29.94 in 10.0 mi East 5.8 mph - N/A   Scattered Clouds
12:18 AM 72.1 °F - 61.5 °F 69% 29.95 in 10.0 mi ESE 8.1 mph - N/A   Clear
12:36 AM 71.6 °F - 60.3 °F 67% 29.95 in 10.0 mi ESE 5.8 mph - N/A   Clear
12:55 AM 71.2 °F - 60.4 °F 69% 29.96 in 10.0 mi ESE 8.1 mph - N/A   Mostly Cloudy
12:56 AM 71.2 °F - 60.4 °F 69% 29.96 in 10.0 mi ESE 6.9 mph - N/A   Mostly Cloudy
1:15 AM 70.5 °F - 60.4 °F 70% 29.95 in 10.0 mi ESE 6.9 mph - N/A   Mostly Cloudy
1:39 AM 69.8 °F - 60.8 °F 73% 29.94 in 10.0 mi ESE 5.8 mph - N/A   Clear
1:57 AM 69.3 °F - 61.2 °F 75% 29.94 in 10.0 mi ESE 5.8 mph - N/A   Clear
2:15 AM 68.7 °F - 61.7 °F 78% 29.94 in 10.0 mi ESE 4.6 mph - N/A   Clear
2:35 AM 68.2 °F - 62.1 °F 81% 29.94 in 10.0 mi ESE 4.6 mph - N/A   Clear
2:36 AM 68.2 °F - 62.1 °F 81% 29.94 in 10.0 mi ESE 4.6 mph - N/A   Clear
2:59 AM 67.6 °F - 62.4 °F 83% 29.93 in 10.0 mi SE 4.6 mph - N/A   Clear
3:17 AM 67.1 °F - 62.4 °F 85% 29.92 in 10.0 mi Calm Calm - N/A   Clear
3:35 AM 67.1 °F - 62.6 °F 85% 29.92 in 10.0 mi East 3.5 mph - N/A   Clear
3:36 AM 66.9 °F - 62.6 °F 86% 29.92 in 10.0 mi East 3.5 mph - N/A   Clear
3:55 AM 66.2 °F - 62.6 °F 88% 29.91 in 10.0 mi South 6.9 mph - N/A   Clear
3:56 AM 66.2 °F - 62.6 °F 88% 29.91 in 10.0 mi South 6.9 mph - N/A   Clear
4:15 AM 66.4 °F - 63.0 °F 89% 29.91 in 10.0 mi SSW 6.9 mph - N/A   Clear
4:38 AM 65.8 °F - 63.0 °F 90% 29.91 in 10.0 mi Calm Calm - N/A   Clear
4:56 AM 65.1 °F - 62.4 °F 91% 29.92 in 10.0 mi Calm Calm - N/A   Clear
5:15 AM 64.9 °F - 62.4 °F 92% 29.90 in 10.0 mi Calm Calm - N/A   Clear
5:16 AM 64.9 °F - 62.4 °F 92% 29.90 in 10.0 mi Calm Calm - N/A   Clear
5:35 AM 64.8 °F - 62.4 °F 92% 29.91 in 10.0 mi Calm Calm - N/A   Clear
5:58 AM 64.6 °F - 62.4 °F 93% 29.91 in 10.0 mi SSW 4.6 mph - N/A   Clear
6:16 AM 64.8 °F - 62.8 °F 93% 29.91 in 10.0 mi Calm Calm - N/A   Clear
6:35 AM 64.6 °F - 62.6 °F 93% 29.90 in 10.0 mi ESE 4.6 mph - N/A   Clear
6:55 AM 65.3 °F - 63.1 °F 93% 29.91 in 10.0 mi Calm Calm - N/A   Clear
6:56 AM 65.3 °F - 63.1 °F 93% 29.91 in 10.0 mi Calm Calm - N/A   Clear
7:19 AM 67.8 °F - 65.5 °F 92% 29.90 in 10.0 mi SSW 5.8 mph - N/A   Clear
7:37 AM 69.4 °F - 66.7 °F 91% 29.90 in 10.0 mi South 9.2 mph - N/A   Clear
7:55 AM 71.1 °F - 68.0 °F 90% 29.90 in 10.0 mi SSW 10.4 mph - N/A   Clear
7:56 AM 71.1 °F - 68.0 °F 90% 29.90 in 10.0 mi SSW 11.5 mph - N/A   Clear
8:15 AM 71.6 °F - 68.2 °F 89% 29.89 in 10.0 mi South 9.2 mph - N/A   Clear
8:16 AM 71.6 °F - 68.2 °F 89% 29.89 in 10.0 mi SSE 6.9 mph - N/A   Clear
8:35 AM 72.1 °F - 68.9 °F 89% 29.90 in 10.0 mi SSW 9.2 mph - N/A   Clear
8:40 AM 72.3 °F - 68.9 °F 89% 29.90 in 10.0 mi South 4.6 mph - N/A   Clear
8:58 AM 73.0 °F - 69.1 °F 87% 29.90 in 10.0 mi Calm Calm - N/A   Clear
9:16 AM 73.8 °F - 69.8 °F 87% 29.91 in 10.0 mi South 4.6 mph - N/A   Scattered Clouds
9:35 AM 75.0 °F - 70.2 °F 85% 29.90 in 10.0 mi South 8.1 mph - N/A   Scattered Clouds
9:36 AM 75.2 °F - 70.2 °F 84% 29.90 in 10.0 mi SSW 6.9 mph - N/A   Scattered Clouds
9:55 AM 76.1 °F - 70.3 °F 82% 29.89 in 10.0 mi South 4.6 mph 16.1 mph N/A   Scattered Clouds
10:00 AM 76.1 °F - 70.2 °F 82% 29.89 in 10.0 mi SSW 12.7 mph - N/A   Scattered Clouds
10:17 AM 76.5 °F - 70.5 °F 82% 29.90 in 10.0 mi SW 6.9 mph - N/A   Mostly Cloudy
10:35 AM 77.0 °F - 70.7 °F 81% 29.91 in 10.0 mi SW 6.9 mph - N/A   Overcast
10:36 AM 77.0 °F - 70.7 °F 81% 29.91 in 10.0 mi SW 5.8 mph - N/A   Overcast
10:55 AM 77.4 °F - 70.9 °F 80% 29.90 in 10.0 mi WSW 12.7 mph 18.4 mph N/A   Overcast
11:15 AM 76.6 °F - 71.1 °F 83% 29.89 in 10.0 mi SW 8.1 mph - N/A   Overcast
11:38 AM 75.6 °F - 70.9 °F 85% 29.87 in 10.0 mi South 9.2 mph - N/A Rain Light Rain
11:56 AM 75.2 °F - 71.1 °F 87% 29.80 in 10.0 mi South 18.4 mph 23.0 mph N/A   Mostly Cloudy
12:15 PM 75.2 °F - 70.9 °F 86% 29.82 in 10.0 mi South 6.9 mph 16.1 mph N/A   Scattered Clouds
12:35 PM 75.6 °F - 70.3 °F 84% 29.82 in 10.0 mi SSE 4.6 mph 16.1 mph N/A   Scattered Clouds
12:59 PM 77.4 °F - 67.1 °F 71% 29.80 in 10.0 mi South 8.1 mph 18.4 mph N/A   Clear
1:16 PM 77.2 °F - 66.6 °F 70% 29.82 in 10.0 mi Calm Calm - N/A   Clear
1:35 PM 77.0 °F - 66.2 °F 69% 29.79 in 10.0 mi South 3.5 mph - N/A   Clear
1:36 PM 77.0 °F - 66.2 °F 69% 29.79 in 10.0 mi Calm Calm - N/A   Clear
1:55 PM 77.9 °F - 63.5 °F 61% 29.79 in 10.0 mi Calm Calm - N/A   Clear
2:19 PM 78.3 °F - 63.9 °F 61% 29.78 in 10.0 mi SW 5.8 mph - N/A   Clear
2:36 PM 79.0 °F - 65.1 °F 62% 29.77 in 10.0 mi Calm Calm - N/A   Clear
2:55 PM 80.2 °F 82.0 °F 64.8 °F 59% 29.79 in 10.0 mi WNW 8.1 mph 16.1 mph N/A   Clear
2:56 PM 80.2 °F 82.0 °F 64.9 °F 59% 29.79 in 10.0 mi WNW 8.1 mph 16.1 mph N/A   Clear
3:15 PM 81.7 °F 83.5 °F 64.9 °F 57% 29.79 in 10.0 mi NW 10.4 mph - N/A   Clear
3:37 PM 83.8 °F 85.6 °F 65.3 °F 53% 29.77 in 10.0 mi SW 3.5 mph - N/A   Clear
3:56 PM 84.2 °F 85.8 °F 64.6 °F 52% 29.78 in 10.0 mi WSW 10.4 mph 16.1 mph N/A   Clear
4:15 PM 84.6 °F 86.1 °F 64.8 °F 51% 29.79 in 10.0 mi West 12.7 mph 18.4 mph N/A   Clear
4:16 PM 84.6 °F 86.1 °F 64.8 °F 51% 29.79 in 10.0 mi West 12.7 mph 18.4 mph N/A   Clear
4:35 PM 85.5 °F 87.1 °F 65.1 °F 50% 29.77 in 10.0 mi WSW 5.8 mph - N/A   Clear
4:40 PM 84.9 °F 86.3 °F 64.4 °F 50% 29.77 in 10.0 mi WSW 6.9 mph - N/A   Clear
4:58 PM 84.2 °F 85.8 °F 64.9 °F 52% 29.77 in 10.0 mi WNW 3.5 mph - N/A   Clear
5:16 PM 86.0 °F 87.6 °F 64.8 °F 49% 29.77 in 10.0 mi West 4.6 mph - N/A   Clear
5:35 PM 84.6 °F 86.6 °F 65.8 °F 53% 29.77 in 10.0 mi West 5.8 mph - N/A   Clear
5:55 PM 85.1 °F 86.9 °F 65.1 °F 51% 29.78 in 10.0 mi WSW 8.1 mph - N/A   Clear
5:56 PM 85.1 °F 86.9 °F 65.1 °F 51% 29.78 in 10.0 mi WSW 6.9 mph - N/A   Clear
6:18 PM 85.5 °F 87.1 °F 64.9 °F 50% 29.78 in 10.0 mi West 17.3 mph 23.0 mph N/A   Clear
6:35 PM 84.0 °F 85.6 °F 64.6 °F 52% 29.79 in 10.0 mi WSW 16.1 mph 21.9 mph N/A   Clear
6:36 PM 84.0 °F 85.6 °F 64.6 °F 52% 29.79 in 10.0 mi WSW 16.1 mph 21.9 mph N/A   Clear
6:55 PM 83.3 °F 85.3 °F 65.8 °F 55% 29.78 in 10.0 mi WSW 9.2 mph 18.4 mph N/A   Clear
7:15 PM 82.8 °F 84.9 °F 66.2 °F 57% 29.78 in 10.0 mi WSW 11.5 mph 18.4 mph N/A   Clear
7:20 PM 82.6 °F 84.9 °F 66.4 °F 58% 29.78 in 10.0 mi WSW 12.7 mph 18.4 mph N/A   Clear
7:38 PM 81.9 °F 84.4 °F 67.3 °F 61% 29.78 in 10.0 mi West 10.4 mph - N/A   Clear
7:56 PM 80.8 °F 83.5 °F 68.0 °F 65% 29.78 in 10.0 mi WSW 4.6 mph - N/A   Clear
8:15 PM 79.9 °F - 67.8 °F 66% 29.78 in 10.0 mi SW 9.2 mph - N/A   Clear
8:35 PM 78.3 °F - 68.2 °F 71% 29.79 in 10.0 mi SW 6.9 mph - N/A   Clear
8:36 PM 78.3 °F - 68.2 °F 71% 29.79 in 10.0 mi SW 6.9 mph - N/A   Clear
8:59 PM 77.2 °F - 68.9 °F 76% 29.79 in 10.0 mi SW 5.8 mph - N/A   Clear
9:17 PM 76.1 °F - 68.9 °F 78% 29.80 in 10.0 mi SW 3.5 mph - N/A   Clear
9:35 PM 75.6 °F - 69.3 °F 81% 29.79 in 10.0 mi Calm Calm - N/A   Clear
9:36 PM 75.6 °F - 69.1 °F 80% 29.79 in 10.0 mi Calm Calm - N/A   Clear
9:55 PM 75.2 °F - 69.6 °F 83% 29.80 in 10.0 mi SSW 3.5 mph - N/A   Clear
10:15 PM 74.5 °F - 69.6 °F 85% 29.80 in 10.0 mi SSW 3.5 mph - N/A   Clear
10:38 PM 74.3 °F - 69.8 °F 86% 29.80 in 10.0 mi South 3.5 mph - N/A   Scattered Clouds
10:55 PM 73.6 °F - 69.8 °F 88% 29.80 in 10.0 mi South 3.5 mph - N/A   Clear
10:56 PM 73.6 °F - 69.8 °F 88% 29.80 in 10.0 mi South 4.6 mph - N/A   Clear
11:15 PM 73.6 °F - 70.2 °F 89% 29.80 in 10.0 mi SSW 5.8 mph - N/A   Clear
11:38 PM 72.9 °F - 70.0 °F 91% 29.80 in 10.0 mi South 5.8 mph - N/A   Clear
11:56 PM 73.0 °F - 70.2 °F 91% 29.80 in 10.0 mi South 9.2 mph - N/A   Clear